Waarnemingen

Advertentie
Mijn weer
Greifswald, Duitsland (10184): temperatuur & dauwpunt: 11.12.2017 22:00:00 - 17.12.2017 22:00:00 (CET)Greifswald, Duitsland (10184): temperatuur 5cm & temperatuur -5cm: 11.12.2017 22:00:00 - 17.12.2017 22:00:00 (CET)Greifswald, Duitsland (10184): temperatuur -20cm & temperatuur -100cm: 11.12.2017 22:00:00 - 17.12.2017 22:00:00 (CET)Greifswald, Duitsland (10184): windsnelheid & windstoten: 11.12.2017 22:00:00 - 17.12.2017 22:00:00 (CET)Greifswald, Duitsland (10184): windrichting: 11.12.2017 22:00:00 - 17.12.2017 22:00:00 (CET)Greifswald, Duitsland (10184): luchtdruk: 11.12.2017 22:00:00 - 17.12.2017 22:00:00 (CET)Greifswald, Duitsland (10184): zicht: 11.12.2017 22:00:00 - 17.12.2017 22:00:00 (CET)Greifswald, Duitsland (10184): Zonneschijnduur: 11.12.2017 22:00:00 - 17.12.2017 22:00:00 (CET)Greifswald, Duitsland (10184): neerslag: 11.12.2017 22:00:00 - 17.12.2017 22:00:00 (CET)
Datum & Tijd tt [°C] td [°C] tt 5cm [°C] tt -5cm [°C] tt -20cm [°C] tt -100cm [°C] ff [km/u] ff [kn] fx [km/u] fx [kn] dd ppp [hPa] vv [km] sd [min] rr [mm]
17.12.2017 22:00:00 -0,9 -1,6 -1,4 0,2 1,3 5,7 5 3 11 6 ZZW 1022,2 13 0 0,0
17.12.2017 21:00:00 -2,5 -2,9 -5,2 0,2 1,3 5,7 6 3 9 5 ZZW 1021,9 10 0 0,0
17.12.2017 20:00:00 -1,8 -2,5 -6,6 0,2 1,4 5,7 5 3 10 5 ZW 1021,5 12 0 0,0
17.12.2017 19:00:00 -1,0 -1,8 -4,2 0,2 1,4 5,8 6 4 10 5 WZW 1021,3 13 0 0,0
17.12.2017 18:00:00 -0,9 -1,8 -4,3 0,2 1,4 5,8 6 3 9 5 WZW 1021,0 12 0 0,0
17.12.2017 17:00:00 -0,2 -1,7 -3,8 0,2 1,4 5,8 8 4 11 6 W 1020,4 32 0 0,0
17.12.2017 16:00:00 0,4 -1,3 -3,3 0,3 1,4 5,8 7 4 10 6 W 1019,6 38 0 0,0
17.12.2017 15:00:00 1,6 -0,8 0,9 0,3 1,4 5,8 7 4 13 7 WNW 1018,9 30 11 0,0
17.12.2017 14:00:00 1,6 -0,2 1,2 0,3 1,4 5,8 6 4 12 7 WNW 1018,6 35 0 0,0
17.12.2017 13:00:00 2,2 -0,5 1,7 0,3 1,5 5,8 10 6 16 9 NW 1018,0 42 54 0,0
17.12.2017 12:00:00 1,4 -0,3 0,4 0,3 1,5 5,8 7 4 13 7 W 1017,6 30 51 0,0
17.12.2017 11:00:00 0,6 -0,6 -0,1 0,3 1,5 5,8 4 2 11 6 ZW 1016,9 15 47 0,0
17.12.2017 10:00:00 -0,9 -1,3 -3,1 0,3 1,5 5,8 0 0 9 5 N 1016,1 8 20 0,0
17.12.2017 09:00:00 -0,8 -1,4 -2,5 0,3 1,6 5,8 8 5 16 8 W 1014,9 14 0 0,0
17.12.2017 08:00:00 -0,4 -1,1 -2,2 0,3 1,6 5,8 9 5 13 7 W 1013,8 20 0 0,0
17.12.2017 07:00:00 0,3 -0,5 -1,6 0,4 1,6 5,8 7 4 13 7 WZW 1012,9 19 0 0,2
17.12.2017 06:00:00 0,6 -0,5 0,0 0,4 1,6 5,8 9 5 14 8 WZW 1012,1 1,5 0 0,0
17.12.2017 05:00:00 0,5 -1,0 -0,4 0,4 1,6 5,8 6 3 11 6 WZW 1011,4 35 0 0,0
17.12.2017 04:00:00 0,1 -0,4 -0,8 0,4 1,6 5,8 3 1 14 8 ZZW 1011,0 12 0 0,3
17.12.2017 03:00:00 0,8 -0,4 0,0 0,4 1,7 5,8 11 6 17 9 W 1010,5 22 0 0,0
17.12.2017 02:00:00 0,6 -0,1 -0,1 0,4 1,7 5,8 9 5 16 9 WZW 1009,7 11 0 0,0
17.12.2017 01:00:00 0,6 0,0 -0,1 0,4 1,7 5,8 9 5 18 10 WZW 1009,2 12 0 0,0
17.12.2017 00:00:00 0,8 0,0 0,0 0,4 1,8 5,8 12 7 17 9 W 1008,6 18 0 0,0
16.12.2017 23:00:00 0,5 -0,1 0,0 0,4 1,9 5,8 8 4 14 7 ZW 1008,2 11 0 1,8
16.12.2017 22:00:00 0,2 -0,4 0,0 0,4 2,0 5,8 10 6 16 9 NNO 1007,8 1,2 0 0,3
16.12.2017 21:00:00 0,4 -0,3 0,0 0,5 2,0 5,8 4 2 18 10 ZZW 1007,4 17 0 2,0
16.12.2017 20:00:00 1,5 0,3 0,9 0,7 2,1 5,8 13 7 27 15 W 1006,9 43 0 0,3
16.12.2017 19:00:00 1,9 0,5 1,1 0,6 2,2 5,8 9 5 18 10 WZW 1006,4 4,4 0 0,4
16.12.2017 18:00:00 2,0 -0,2 1,3 0,9 2,3 5,8 5 3 20 11 ZW 1005,9 55 0 0,0
16.12.2017 17:00:00 2,4 -0,6 1,7 0,5 2,5 5,8 11 6 20 11 W 1005,4 30 0 0,0
16.12.2017 16:00:00 1,8 -0,7 -0,5 0,8 2,7 5,8 9 5 15 8 WZW 1004,8 45 0 0,0
16.12.2017 15:00:00 2,4 -1,0 0,8 1,6 2,7 5,8 11 6 16 9 W 1004,1 60 3 0,0
16.12.2017 14:00:00 3,0 -0,6 1,5 2,6 2,7 5,9 11 6 19 11 W 1003,5 42 0 0,0
16.12.2017 13:00:00 3,7 1,2 3,8 3,0 2,5 5,9 12 7 23 13 WNW 1003,1 15 3 0,0
16.12.2017 12:00:00 3,5 0,9 3,4 2,7 2,4 5,9 16 9 29 15 W 1002,6 16 13 0,0
16.12.2017 11:00:00 2,8 0,5 2,2 1,8 2,4 5,9 13 7 25 13 WZW 1002,4 15 1 0,0
16.12.2017 10:00:00 2,5 0,3 2,1 1,5 2,4 5,9 14 7 24 13 WZW 1001,9 13 0 0,0
16.12.2017 09:00:00 2,2 0,4 1,8 1,5 2,4 5,9 11 6 19 10 WZW 1001,4 10 0 0,0
16.12.2017 08:00:00 2,2 0,4 1,1 1,6 2,5 5,9 10 5 22 12 ZW 1000,8 9 0 0,0
16.12.2017 07:00:00 2,3 0,3 2,1 1,7 2,5 5,9 12 6 21 11 ZW 1000,6 8 0 0,0
16.12.2017 06:00:00 2,2 0,2 1,9 1,7 2,5 5,9 11 6 21 12 ZW 1000,4 8 0 0,0
16.12.2017 05:00:00 2,1 0,0 1,7 1,7 2,5 5,9 9 5 22 12 ZW 1000,3 8 0 0,0
16.12.2017 04:00:00 2,1 0,1 1,9 1,8 2,5 5,9 11 6 19 10 WZW 1000,1 8 0 0,0
16.12.2017 03:00:00 2,2 0,0 2,0 1,8 2,5 5,9 12 6 22 12 WZW 999,9 8 0 0,0
16.12.2017 02:00:00 2,4 0,2 2,2 1,9 2,5 5,9 11 6 22 12 WZW 999,9 8 0 0,0
16.12.2017 01:00:00 2,5 0,2 2,2 1,8 2,5 5,9 12 6 21 11 WZW 999,5 8 0 0,0
16.12.2017 00:00:00 2,6 0,5 2,3 2,0 2,5 5,9 10 5 20 11 ZW 999,4 8 0 0,0
15.12.2017 23:00:00 2,6 0,7 2,4 2,0 2,5 5,9 13 7 20 11 WZW 998,9 7 0 0,0
15.12.2017 22:00:00 2,4 1,0 2,1 1,9 2,5 5,9 9 5 16 9 WZW 998,8 7 0 0,0
15.12.2017 21:00:00 2,3 0,9 1,9 1,8 2,6 5,9 9 5 18 10 ZW 998,5 7 0 0,0
15.12.2017 20:00:00 2,1 0,8 1,6 1,8 2,6 5,9 10 5 19 10 ZZW 998,1 8 0 0,0
15.12.2017 19:00:00 2,2 0,4 2,0 1,9 2,6 5,9 11 6 19 10 ZW 997,6 9 0 0,0
15.12.2017 18:00:00 1,9 0,4 1,5 1,8 2,7 5,9 9 5 16 9 ZZW 997,2 12 0 0,0
15.12.2017 17:00:00 2,1 0,1 1,7 1,9 2,7 5,9 8 4 16 9 ZW 997,0 12 0 0,0
15.12.2017 16:00:00 2,4 0,1 0,8 2,1 2,7 5,9 7 4 14 7 WZW 996,4 15 0 0,0
15.12.2017 15:00:00 2,7 0,1 2,5 2,7 2,7 5,9 8 5 18 10 ZW 995,7 20 0 0,0
15.12.2017 14:00:00 2,6 -0,3 2,7 2,9 2,6 5,9 8 4 17 9 ZW 995,3 22 0 0,0
15.12.2017 13:00:00 2,7 -0,5 2,9 2,9 2,4 5,9 7 4 18 10 ZW 994,7 26 3 0,0
15.12.2017 12:00:00 3,0 -0,4 4,0 2,4 2,3 5,9 10 5 17 9 ZZW 994,5 22 8 0,0
15.12.2017 11:00:00 1,9 -0,6 2,1 1,8 2,3 6,0 9 5 18 10 ZZW 994,3 20 0 0,0
15.12.2017 10:00:00 1,5 -0,8 1,6 1,3 2,3 6,0 9 5 16 8 ZZW 993,9 22 0 0,0
15.12.2017 09:00:00 0,8 -0,8 0,6 0,9 2,4 6,0 11 6 18 10 ZZW 993,3 18 0 0,0
15.12.2017 08:00:00 1,3 -0,4 0,4 1,5 2,4 6,0 11 6 16 9 ZZW 992,6 18 0 0,0
15.12.2017 07:00:00 2,4 0,4 2,1 1,8 2,4 6,0 9 5 18 10 ZZW 992,0 18 0 0,0
15.12.2017 06:00:00 2,8 0,4 2,4 1,8 2,4 6,0 11 6 21 12 ZZW 991,7 18 0 0,0
15.12.2017 05:00:00 2,9 0,3 2,4 1,7 2,4 6,0 10 5 23 12 ZW 991,2 19 0 0,0
15.12.2017 04:00:00 2,8 0,5 2,4 1,7 2,4 6,0 11 6 31 17 ZW 990,9 20 0 0,0
15.12.2017 03:00:00 2,6 0,1 2,3 1,5 2,4 6,0 14 7 26 14 ZZW 990,7 24 0 0,0
15.12.2017 02:00:00 2,4 -0,1 2,0 1,3 2,4 6,0 13 7 25 13 ZZW 990,6 29 0 0,0
15.12.2017 01:00:00 2,1 -0,3 1,6 1,1 2,6 6,0 11 6 24 13 ZW 990,4 24 0 0,0
15.12.2017 00:00:00 2,0 -0,4 0,7 1,3 2,7 6,0 11 6 24 13 ZW 990,2 25 0 0,0
14.12.2017 23:00:00 2,6 0,1 2,3 1,8 2,7 6,0 14 7 30 16 ZW 989,8 27 0 0,0
14.12.2017 22:00:00 2,7 0,2 2,1 2,1 2,7 6,0 13 7 31 17 WZW 989,6 31 0 0,0
14.12.2017 21:00:00 2,7 0,7 2,0 2,2 2,8 6,0 16 9 34 19 WZW 989,2 24 0 0,0
14.12.2017 20:00:00 2,6 0,9 2,1 2,2 2,8 6,0 14 7 33 18 ZW 988,8 11 0 0,0
14.12.2017 19:00:00 3,1 0,4 2,6 2,2 2,8 6,0 18 10 37 20 ZW 988,6 33 0 0,0
14.12.2017 18:00:00 3,3 0,7 3,0 2,5 2,9 6,0 16 9 35 19 ZW 988,5 40 0 0,0
14.12.2017 17:00:00 3,6 0,9 2,6 2,7 2,9 6,1 15 8 36 20 ZW 988,2 30 0 0,0
14.12.2017 16:00:00 4,2 0,6 3,8 2,9 2,8 6,1 17 9 39 21 ZW 987,8 40 0 0,0
14.12.2017 15:00:00 4,6 1,2 4,3 3,2 2,7 6,1 20 11 37 20 WZW 987,3 29 0 0,0
14.12.2017 14:00:00 4,8 1,0 4,6 3,3 2,6 6,1 23 12 40 22 WZW 986,6 32 0 0,0
14.12.2017 13:00:00 4,6 1,1 4,5 3,1 2,4 6,1 22 12 45 24 WZW 986,3 30 0 0,0
14.12.2017 12:00:00 4,3 0,9 3,8 3,0 2,2 6,1 19 10 44 24 ZW 985,8 35 7 0,0
14.12.2017 11:00:00 4,4 1,1 4,4 2,7 2,0 6,1 24 13 49 26 WZW 985,0 30 16 0,0
14.12.2017 10:00:00 4,2 0,9 3,9 2,0 1,9 6,1 23 13 49 26 ZW 983,9 35 2 0,0
14.12.2017 09:00:00 3,9 1,4 3,3 1,5 1,8 6,1 21 12 42 23 ZW 983,1 40 0 0,0
14.12.2017 08:00:00 3,4 1,7 2,4 0,9 1,9 6,1 22 12 46 25 ZW 982,2 35 0 0,2
14.12.2017 07:00:00 1,6 0,5 1,0 0,5 2,0 6,1 22 12 44 24 ZW 981,8 16 0 1,5
14.12.2017 06:00:00 0,7 -0,1 0,0 0,7 2,1 6,1 14 8 29 16 Z 981,7 3,0 0 1,2
14.12.2017 05:00:00 1,1 0,2 0,8 1,2 2,1 6,1 15 8 35 19 ZZO 982,4 8 0 1,1
14.12.2017 04:00:00 1,8 0,7 1,4 1,5 2,1 6,1 19 10 36 19 ZZO 983,7 7 0 0,4
14.12.2017 03:00:00 2,4 0,4 2,0 1,6 2,0 6,1 16 9 30 16 ZZO 985,3 31 0 0,0
14.12.2017 02:00:00 2,1 0,5 1,8 1,5 2,0 6,1 14 8 34 18 Z 986,7 25 0 0,0
14.12.2017 01:00:00 2,2 0,3 1,7 1,4 1,9 6,1 16 8 39 21 Z 988,3 39 0 0,0
14.12.2017 00:00:00 1,9 0,3 1,3 1,3 1,9 6,2 19 10 40 22 Z 989,7 27 0 0,1
13.12.2017 23:00:00 1,8 0,3 1,3 1,3 1,8 6,2 20 11 42 23 Z 990,7 15 0 0,2
13.12.2017 22:00:00 2,0 0,3 1,4 1,1 1,8 6,2 20 11 40 21 Z 992,1 26 0 0,1
13.12.2017 21:00:00 1,7 0,3 1,2 1,0 1,7 6,2 20 11 45 24 Z 993,5 10 0 0,4
13.12.2017 20:00:00 2,3 -0,2 1,5 0,7 1,7 6,2 21 11 40 22 Z 995,0 10 0 0,0
13.12.2017 19:00:00 2,7 -1,5 2,2 0,4 1,7 6,2 20 11 40 22 ZZO 996,5 49 0 0,0
13.12.2017 18:00:00 2,6 -1,6 1,7 0,4 1,8 6,2 21 11 45 24 Z 997,9 45 0 0,0
13.12.2017 17:00:00 2,3 -1,7 1,3 0,4 1,8 6,2 17 9 38 20 Z 999,3 41 0 0,0
13.12.2017 16:00:00 1,9 -1,8 0,7 0,5 1,9 6,2 16 9 34 18 Z 1001,0 40 0 0,0
13.12.2017 15:00:00 2,2 -1,9 1,3 0,9 1,8 6,2 18 10 40 21 Z 1002,0 37 30 0,0
13.12.2017 14:00:00 2,7 -1,7 2,5 0,9 1,8 6,2 16 9 36 19 Z 1003,6 31 59 0,0
13.12.2017 13:00:00 2,5 -2,0 3,1 0,5 1,7 6,2 21 11 35 19 Z 1005,0 33 60 0,0
13.12.2017 12:00:00 2,1 -1,7 2,2 0,4 1,8 6,2 14 7 38 20 Z 1006,6 25 30 0,0
13.12.2017 11:00:00 2,0 -1,7 1,7 0,3 1,8 6,2 21 11 36 20 Z 1008,0 20 59 0,0
13.12.2017 10:00:00 1,5 -1,6 1,5 0,4 1,9 6,2 19 10 31 17 Z 1008,9 16 40 0,0
13.12.2017 09:00:00 1,1 -1,8 0,0 0,4 2,0 6,2 15 8 33 18 ZZW 1009,6 16 0 0,0
13.12.2017 08:00:00 1,3 -1,6 -0,3 0,3 2,0 6,2 14 8 32 18 ZZW 1009,9 18 0 0,0
13.12.2017 07:00:00 2,1 -1,4 1,7 1,1 2,0 6,2 19 10 37 20 ZW 1010,2 20 0 0,0
13.12.2017 06:00:00 2,0 -1,1 1,7 1,1 2,0 6,3 16 9 35 19 ZW 1010,6 20 0 0,0
13.12.2017 05:00:00 2,0 -1,1 1,7 1,0 2,0 6,3 15 8 32 17 ZW 1010,8 18 0 0,0
13.12.2017 04:00:00 1,8 -0,7 1,5 0,8 1,9 6,3 15 8 36 19 ZW 1011,0 16 0 0,0
13.12.2017 03:00:00 1,5 -0,7 1,2 0,5 2,0 6,3 14 8 34 19 ZW 1010,7 20 0 0,0
13.12.2017 02:00:00 1,3 -0,4 0,4 0,4 2,1 6,3 15 8 32 17 ZW 1010,0 14 0 0,0
13.12.2017 01:00:00 1,2 -0,3 0,7 0,4 2,1 6,3 16 9 29 16 ZW 1009,6 12 0 0,0
13.12.2017 00:00:00 1,0 -0,4 0,6 0,5 2,3 6,3 17 9 30 16 WZW 1009,6 11 0 0,0
12.12.2017 23:00:00 0,8 -1,2 -0,3 0,5 2,4 6,3 15 8 34 19 WZW 1009,2 20 0 0,0
12.12.2017 22:00:00 1,4 -0,5 0,4 0,5 2,6 6,3 17 9 29 15 WZW 1008,4 18 0 0,0
12.12.2017 21:00:00 1,7 -1,9 0,8 1,2 2,7 6,3 17 9 29 15 W 1007,6 44 0 0,0
12.12.2017 20:00:00 1,7 -0,3 0,9 1,5 2,8 6,3 16 9 29 16 W 1006,2 26 0 0,0
12.12.2017 19:00:00 2,2 0,1 1,3 1,9 2,9 6,3 20 11 29 16 W 1004,5 26 0 0,0
12.12.2017 18:00:00 1,7 0,7 1,3 2,1 3,0 6,4 16 9 26 14 W 1002,8 20 0 0,1
12.12.2017 17:00:00 1,8 0,6 1,4 2,2 3,0 6,4 21 12 33 18 WNW 1001,2 16 0 0,9
12.12.2017 16:00:00 1,7 0,8 1,5 2,5 3,1 6,4 15 8 31 17 WZW 999,1 9 0 0,8
12.12.2017 15:00:00 2,2 1,0 1,9 2,8 3,1 6,4 21 12 37 20 WZW 997,2 10 0 0,6
12.12.2017 14:00:00 2,6 1,4 2,3 3,0 3,1 6,4 22 12 41 22 WZW 995,5 15 0 0,0
12.12.2017 13:00:00 2,4 1,2 2,2 3,1 3,1 6,4 20 11 41 22 WZW 994,3 4,5 0 0,2
12.12.2017 12:00:00 2,9 1,7 2,6 3,3 3,1 6,4 23 12 40 21 WZW 992,7 10 0 0,2
12.12.2017 11:00:00 3,3 1,6 2,9 3,6 3,0 6,4 21 11 35 19 WZW 991,3 14 0 0,0
12.12.2017 10:00:00 3,9 2,2 3,4 3,7 2,8 6,4 19 10 39 21 WZW 989,7 20 0 0,0
12.12.2017 09:00:00 5,8 4,2 5,1 3,8 2,7 6,4 15 8 34 18 ZW 987,8 20 0 0,1
12.12.2017 08:00:00 6,1 4,3 5,1 3,6 2,4 6,5 16 9 37 20 ZW 986,9 20 0 0,3
12.12.2017 07:00:00 6,4 4,8 5,5 3,3 2,2 6,5 16 9 27 14 ZZW 985,9 17 0 0,4
12.12.2017 06:00:00 6,3 4,9 5,4 2,9 1,9 6,5 16 9 28 15 ZZW 985,4 5 0 0,3
12.12.2017 05:00:00 6,2 4,4 5,1 2,2 1,7 6,5 13 7 29 16 ZZW 985,0 28 0 0,0
12.12.2017 04:00:00 5,8 4,3 4,8 1,1 1,6 6,5 14 8 26 14 ZZW 984,8 20 0 0,0
12.12.2017 03:00:00 4,6 3,7 3,6 0,4 1,5 6,5 8 4 17 9 Z 984,7 8 0 0,0
12.12.2017 02:00:00 3,9 3,3 3,3 0,3 1,5 6,5 5 3 17 9 Z 984,6 4,6 0 0,4
12.12.2017 01:00:00 3,4 2,7 2,7 0,3 1,5 6,5 6 3 11 6 Z 984,6 6 0 0,1
12.12.2017 00:00:00 2,9 2,3 2,1 0,3 1,5 6,5 6 3 16 9 Z 984,8 4,0 0 0,3
11.12.2017 23:00:00 2,6 2,0 1,9 0,3 1,5 6,5 7 4 18 10 Z 984,9 3,6 0 0,1
11.12.2017 22:00:00 1,7 1,2 1,1 0,3 1,5 6,5 8 5 27 14 OZO 984,0 2,4 0 0,2

tt = temperatuur
td = dauwpunt
tt 5cm = temperatuur 5cm
tt -5cm = temperatuur -5cm
tt -20cm = temperatuur -20cm
tt -100cm = temperatuur -100cm
ff = windsnelheid
fx = windstoten
dd = windrichting
ppp = luchtdruk
vv = zicht
sd = Zonneschijnduur
rr = neerslag

Weerstations in de omgeving